User: anonymous   Login
Location: Cranbrook Institute of Science
(42.5830°N, 83.2450°W)
Time: 22:53:03
(UTC-04:00)
Language:

CZ-4B R/B - Orbit

View from above orbital plane
View from above orbital plane
View from above satellite
View from above satellite

Ground track
Ground track

The orbit data is extracted from the following two-line orbital elements,

1 29093U 06015B   17293.14108657  .00004613  00000-0  10797-3 0  9990
2 29093  97.5066  47.1904 0061435 227.2963 132.3100 15.40693407636760
Epoch (UTC): 20 October 2017 03:23:09
Eccentricity: 0.0061435
inclination: 97.5066°
perigee height: 402 km
apogee height: 486 km
right ascension of ascending node: 47.1904°
argument of perigee: 227.2963°
revolutions per day: 15.40693407
mean anomaly at epoch: 132.3100°
orbit number at epoch: 63676

The dashed part of the orbit path shows where the satellite is in the earth's shadow,  

DLR